Weather History for Lugano, Switzerland

Change the Weather History Date:

Tuesday, August 6, 2013

  Actual Average Record
Temperature  
Mean Temperature 80 °F -  
Max Temperature 91 °F 74 °F - ()
Min Temperature 68 °F 59 °F - ()
Cooling Degree Days 14    
Growing Degree Days 30 (Base 50)    
Moisture  
Dew Point 68 °F    
Average Humidity 66    
Maximum Humidity 94    
Minimum Humidity 43    
Precipitation  
Precipitation 0.01 in 0.22 in - ()
Sea Level Pressure  
Sea Level Pressure 29.99 in    
Wind  
Wind Speed 3 mph ()    
Max Wind Speed 14 mph    
Max Gust Speed -    
Visibility 6.2 miles    
Events Rain    
T = Trace of Precipitation, MM = Missing Value Source: Averaged Metar Reports

Daily Weather History Graph

Daily Weather History Graph

Search for Another Location

Airport:

Trip Planner

Search our weather history database for the weather conditions in past years. The results will help you decide how hot, cold, wet, or windy it might be!

Date:

Astronomy

Aug. 06, 2013 Rise Set
Actual Time 6:12 AM CEST 8:46 PM CEST
Civil Twilight 5:38 AM CEST 9:20 PM CEST
Nautical Twilight 4:56 AM CEST 10:02 PM CEST
Astronomical Twilight 4:07 AM CEST 10:51 PM CEST
Moon 5:51 AM CEST (8/6) 8:08 PM CEST (8/6)
Length of Visible Light 15h 41m
Length of Day
14h 34m
Waning Crescent, 0% of the Moon is Illuminated
Aug 6
Waning Crescent
Aug 6
New
Aug 14
First Quarter
Aug 21
Full
Aug 28
Last Quarter

Hourly Weather History & Observations

Time (CEST) Temp. Heat Index Dew Point Humidity Pressure Visibility Wind Dir Wind Speed Gust Speed Precip Events Conditions
12:00 AM 78 °F - 65 °F 57% 30.02 in - North 3.5 mph - -  
12:20 AM 75.2 °F - 68.0 °F 78% 30.06 in - Variable 1.2 mph - N/A   Clear
12:50 AM 73.4 °F - 68.0 °F 83% 30.06 in - SE 2.3 mph - N/A   Clear
1:00 AM 78 °F - 65 °F 56% 30.02 in - West 1.2 mph - -  
1:20 AM 73.4 °F - 68.0 °F 83% 30.04 in - Variable 1.2 mph - N/A   Clear
1:50 AM 73.4 °F - 66.2 °F 78% 30.04 in - Variable 1.2 mph - N/A   Clear
2:20 AM 73.4 °F - 66.2 °F 78% 30.04 in - Variable 1.2 mph - N/A   Clear
2:50 AM 71.6 °F - 66.2 °F 83% 30.04 in - NNE 1.2 mph - N/A   Clear
3:00 AM 75 °F - 65 °F 63% 30.01 in - North 3.5 mph - -  
3:20 AM 69.8 °F - 66.2 °F 88% 30.04 in - North 3.5 mph - N/A   Clear
3:50 AM 71.6 °F - 66.2 °F 83% 30.04 in - Variable 2.3 mph - N/A   Clear
4:00 AM 74 °F - 65 °F 66% 30.00 in - NNW 2.3 mph - -  
4:20 AM 69.8 °F - 66.2 °F 88% 30.04 in - Calm Calm - N/A   Clear
4:50 AM 69.8 °F - 66.2 °F 88% 30.04 in - Variable 1.2 mph - N/A   Clear
5:20 AM 69.8 °F - 66.2 °F 88% 30.01 in - Calm Calm - N/A   Clear
5:50 AM 69.8 °F - 66.2 °F 88% 30.04 in 6.2 mi Variable 2.3 mph - N/A   Partly Cloudy
6:00 AM 73 °F - 64 °F 65% 30.00 in - North 2.3 mph - -  
6:20 AM 68.0 °F - 64.4 °F 88% 30.04 in 6.2 mi Variable 1.2 mph - N/A   Partly Cloudy
6:50 AM 69.8 °F - 64.4 °F 83% 30.04 in 6.2 mi Variable 1.2 mph - N/A   Partly Cloudy
7:00 AM 72 °F - 64 °F 70% 30.01 in - North 3.5 mph - -  
7:20 AM 68.0 °F - 66.2 °F 94% 30.04 in 6.2 mi North 4.6 mph - N/A   Partly Cloudy
7:50 AM 71.6 °F - 66.2 °F 83% 30.04 in - Variable 2.3 mph - N/A   Clear
8:20 AM 73.4 °F - 68.0 °F 83% 30.04 in - East 2.3 mph - N/A   Clear
8:50 AM 77.0 °F - 68.0 °F 74% 30.04 in - Variable 2.3 mph - N/A   Clear
9:00 AM 77 °F - 66 °F 61% 30.01 in - SE 1.2 mph - -  
9:20 AM 78.8 °F - 68.0 °F 69% 30.04 in - Variable 2.3 mph - N/A   Clear
9:50 AM 78.8 °F - 68.0 °F 69% 30.04 in 6.2 mi Variable 3.5 mph - N/A   Partly Cloudy
10:00 AM 79 °F - 67 °F 60% 30.00 in - SE 1.2 mph - -  
10:20 AM 82.4 °F 84.6 °F 66.2 °F 58% 30.04 in 6.2 mi Variable 2.3 mph - N/A   Partly Cloudy
10:50 AM 82.4 °F 84.6 °F 66.2 °F 58% 30.04 in 6.2 mi SSW 3.5 mph - N/A   Partly Cloudy
11:20 AM 84.2 °F 86.6 °F 66.2 °F 55% 30.04 in 6.2 mi South 3.5 mph - N/A   Partly Cloudy
11:50 AM 86.0 °F 90.4 °F 69.8 °F 58% 30.04 in 6.2 mi South 4.6 mph - N/A   Partly Cloudy
12:00 PM 82 °F - 68 °F 54% 29.99 in - SE 2.3 mph - -  
12:20 PM 87.8 °F 92.6 °F 69.8 °F 55% 30.01 in 6.2 mi Variable 2.3 mph - N/A   Partly Cloudy
12:50 PM 87.8 °F 90.4 °F 66.2 °F 49% 30.01 in 6.2 mi South 3.5 mph - N/A   Partly Cloudy
1:00 PM 86 °F - 68 °F 46% 29.97 in - SE 3.5 mph - -  
1:20 PM 89.6 °F 93.4 °F 68.0 °F 49% 30.01 in 6.2 mi South 5.8 mph - N/A   Partly Cloudy
1:50 PM 91.4 °F 94.0 °F 66.2 °F 43% 30.01 in 6.2 mi South 3.5 mph - N/A   Partly Cloudy
2:20 PM 91.4 °F 94.0 °F 66.2 °F 43% 29.98 in 6.2 mi SSW 6.9 mph - N/A   Partly Cloudy
2:50 PM 91.4 °F 95.4 °F 68.0 °F 46% 29.98 in 6.2 mi South 6.9 mph - N/A   Partly Cloudy
3:00 PM 88 °F - 71 °F 47% 29.92 in - SSW 3.5 mph - -  
3:20 PM 91.4 °F 95.4 °F 68.0 °F 46% 29.98 in 6.2 mi South 5.8 mph - N/A   Scattered Clouds
3:50 PM 91.4 °F 96.8 °F 69.8 °F 49% 29.95 in 6.2 mi South 10.4 mph - N/A   Scattered Clouds
4:00 PM 88 °F - 70 °F 46% 29.90 in - SSW 5.8 mph - -  
4:20 PM 91.4 °F 95.4 °F 68.0 °F 46% 29.98 in 6.2 mi South 8.1 mph - N/A   Scattered Clouds
4:50 PM 89.6 °F 92.2 °F 66.2 °F 46% 29.95 in 6.2 mi WSW 6.9 mph - N/A   Mostly Cloudy
5:20 PM 87.8 °F 91.4 °F 68.0 °F 52% 29.98 in 6.2 mi WSW 5.8 mph - N/A   Mostly Cloudy
5:50 PM 86.0 °F 90.4 °F 69.8 °F 58% 29.95 in 6.2 mi Variable 3.5 mph - N/A   Mostly Cloudy
6:00 PM 86 °F - 69 °F 48% 29.89 in - South 1.2 mph - -  
6:20 PM 86.0 °F 93.4 °F 73.4 °F 66% 29.95 in 6.2 mi Variable 3.5 mph - N/A   Mostly Cloudy
6:50 PM 86.0 °F 90.4 °F 69.8 °F 58% 29.95 in 6.2 mi South 3.5 mph - N/A   Partly Cloudy
7:00 PM 85 °F - 73 °F 61% 29.89 in - SW 2.3 mph - -  
7:20 PM 86.0 °F 91.8 °F 71.6 °F 62% 29.95 in - Variable 3.5 mph - N/A   Clear
7:50 PM 84.2 °F 89.6 °F 71.6 °F 66% 29.95 in 6.2 mi Variable 2.3 mph - N/A   Partly Cloudy
8:20 PM 82.4 °F 87.2 °F 71.6 °F 70% 29.95 in 6.2 mi Variable 3.5 mph - N/A   Partly Cloudy
8:50 PM 80.6 °F 84.6 °F 71.6 °F 74% 29.95 in 6.2 mi Variable 2.3 mph - N/A   Partly Cloudy
9:00 PM 82 °F - 70 °F 59% 29.91 in - NW 1.2 mph - -  
9:20 PM 80.6 °F 83.9 °F 69.8 °F 70% 29.95 in 6.2 mi Variable 2.3 mph - N/A   Partly Cloudy
9:50 PM 78.8 °F - 69.8 °F 74% 29.95 in 6.2 mi East 2.3 mph - N/A   Partly Cloudy
10:00 PM 80 °F - 68 °F 58% 29.92 in - North 6.9 mph - -  
10:20 PM 77.0 °F - 69.8 °F 78% 29.95 in 6.2 mi Variable 1.2 mph - N/A   Partly Cloudy
10:50 PM 77.0 °F - 69.8 °F 78% 29.95 in 6.2 mi Variable 2.3 mph - N/A   Partly Cloudy
11:20 PM 77.0 °F - 68.0 °F 74% 29.95 in 6.2 mi East 3.5 mph - N/A   Partly Cloudy
11:50 PM 77.0 °F - 68.0 °F 74% 29.89 in 6.2 mi ENE 13.8 mph - N/A Rain Light Rain